Change the Weather History Date:

Wednesday, January 11, 2012

  Actual Average (KOLM) Record (KOLM)
Temperature  
Mean Temperature 35 °F 40 °F  
Max Temperature 42 °F 45 °F 59 °F (1983)
Min Temperature 28 °F 34 °F 6 °F (1963)
Degree Days  
Heating Degree Days 30 25  
Month to date heating degree days 285  
Since 1 July heating degree days 2555  
Cooling Degree Days 0 0  
Month to date cooling degree days 0  
Year to date cooling degree days 0  
Moisture  
Dew Point 30 °F    
Average Humidity 88    
Maximum Humidity 100    
Minimum Humidity 61    
Precipitation  
Precipitation 0.01 in 0.26 in 1.16 in (1953)
Month to date precipitation 2.83  
Year to date precipitation 2.83  
Sea Level Pressure  
Sea Level Pressure 30.45 in    
Wind  
Wind Speed 5 mph (NNE)    
Max Wind Speed 12 mph    
Max Gust Speed -    
Visibility 9 miles    
Events      
T = Trace of Precipitation, MM = Missing Value Source: NWS Daily Summary

Daily Weather History Graph

Daily Weather History Graph

Search for Another Location

Airport or City:

Trip Planner

Search our weather history database for the weather conditions in past years. The results will help you decide how hot, cold, wet, or windy it might be!

Date:

Astronomy

Jan. 11, 2012 Rise Set
Actual Time 7:54 AM PST 4:45 PM PST
Civil Twilight 7:20 AM PST 5:19 PM PST
Nautical Twilight 6:42 AM PST 5:57 PM PST
Astronomical Twilight 6:05 AM PST 6:34 PM PST
Moon 8:03 PM PST (1/11) 8:57 AM PST (1/11)
Length of Visible Light 9h 59m
Length of Day
8h 50m
Waning Gibbous, 93% of the Moon is Illuminated
Jan 11
Waning Gibbous
Jan 16
Last Quarter
Jan 22
New
Jan 30
First Quarter
Feb 7
Full

Hourly Weather History & Observations

Time (PST) Temp. Windchill Dew Point Humidity Pressure Visibility Wind Dir Wind Speed Gust Speed Precip Events Conditions
12:35 AM 32.0 °F 24.8 °F 32.0 °F 100% 30.52 in 10.0 mi NNW 8.1 mph - N/A   Clear
12:55 AM 32.0 °F 26.4 °F 32.0 °F 100% 30.52 in 10.0 mi North 5.8 mph - N/A   Clear
1:15 AM 30.2 °F 22.6 °F 28.4 °F 93% 30.52 in 10.0 mi NE 8.1 mph - N/A   Clear
1:35 AM 28.4 °F 20.4 °F 28.4 °F 100% 30.51 in 10.0 mi NE 8.1 mph - N/A   Clear
1:55 AM 28.4 °F 24.6 °F 28.4 °F 100% 30.51 in 10.0 mi WSW 3.5 mph - N/A   Clear
2:15 AM 30.2 °F - 30.2 °F 100% 30.51 in 10.0 mi Calm Calm - N/A   Clear
2:35 AM 32.0 °F 28.7 °F 30.2 °F 93% 30.52 in 10.0 mi ENE 3.5 mph - N/A   Clear
2:55 AM 30.2 °F 25.4 °F 28.4 °F 93% 30.51 in 10.0 mi ENE 4.6 mph - N/A   Clear
3:15 AM 28.4 °F - 26.6 °F 93% 30.50 in 10.0 mi Calm Calm - N/A   Clear
3:35 AM 28.4 °F - 28.4 °F 100% 30.50 in 10.0 mi Calm Calm - N/A   Clear
3:55 AM 28.4 °F - 28.4 °F 100% 30.49 in 10.0 mi Calm Calm - N/A   Clear
4:15 AM 28.4 °F - 28.4 °F 100% 30.49 in 7.0 mi Calm Calm - N/A   Clear
4:35 AM 28.4 °F - 26.6 °F 93% 30.49 in 8.0 mi Calm Calm - N/A   Clear
4:55 AM 28.4 °F - 28.4 °F 100% 30.49 in 7.0 mi Calm Calm - N/A   Clear
5:15 AM 28.4 °F 23.3 °F 26.6 °F 93% 30.49 in 9.0 mi ENE 4.6 mph - N/A   Clear
5:35 AM 28.4 °F - 28.4 °F 100% 30.49 in 8.0 mi Calm Calm - N/A   Clear
5:55 AM 28.4 °F - 28.4 °F 100% 30.50 in 9.0 mi Calm Calm - N/A   Clear
6:15 AM 28.4 °F - 28.4 °F 100% 30.50 in 10.0 mi Calm Calm - N/A   Clear
6:35 AM 28.4 °F - 28.4 °F 100% 30.49 in 6.0 mi Calm Calm - N/A   Clear
6:55 AM 28.4 °F - 28.4 °F 100% 30.49 in 10.0 mi Calm Calm - N/A   Clear
7:15 AM 28.4 °F 24.6 °F 28.4 °F 100% 30.49 in 9.0 mi NE 3.5 mph - N/A   Clear
7:35 AM 28.4 °F 23.3 °F 28.4 °F 100% 30.49 in 7.0 mi NNE 4.6 mph - N/A   Clear
7:55 AM 32.0 °F 28.7 °F 30.2 °F 93% 30.50 in 10.0 mi North 3.5 mph - N/A   Partly Cloudy
8:15 AM 32.0 °F 27.5 °F 30.2 °F 93% 30.49 in 10.0 mi NNE 4.6 mph - N/A   Clear
8:35 AM 30.2 °F 25.4 °F 28.4 °F 93% 30.49 in 10.0 mi North 4.6 mph - N/A   Clear
8:55 AM 30.2 °F 25.4 °F 28.4 °F 93% 30.50 in 10.0 mi NE 4.6 mph - N/A   Clear
9:15 AM 32.0 °F 28.7 °F 32.0 °F 100% 30.49 in 10.0 mi NNE 3.5 mph - N/A   Clear
9:35 AM 32.0 °F 27.5 °F 32.0 °F 100% 30.49 in 10.0 mi North 4.6 mph - N/A   Clear
10:15 AM 33.8 °F 30.8 °F 32.0 °F 93% 30.49 in 10.0 mi East 3.5 mph - N/A   Clear
10:35 AM 37.4 °F 33.8 °F 32.0 °F 81% 30.48 in 9.0 mi North 4.6 mph - N/A   Clear
10:55 AM 37.4 °F 33.8 °F 32.0 °F 81% 30.47 in 10.0 mi North 4.6 mph - N/A   Clear
11:15 AM 35.6 °F 30.7 °F 32.0 °F 87% 30.47 in 6.0 mi North 5.8 mph - N/A   Clear
11:35 AM 37.4 °F 32.1 °F 33.8 °F 87% 30.46 in 10.0 mi North 6.9 mph - N/A   Clear
11:55 AM 39.2 °F 32.0 °F 33.8 °F 81% 30.45 in 10.0 mi North 11.5 mph - N/A   Clear
12:15 PM 39.2 °F 32.5 °F 33.8 °F 81% 30.44 in 10.0 mi NNE 10.4 mph - N/A   Clear
12:35 PM 41.0 °F 34.7 °F 32.0 °F 70% 30.44 in 10.0 mi NNE 10.4 mph - N/A   Clear
12:55 PM 41.0 °F 35.8 °F 32.0 °F 70% 30.43 in 10.0 mi NNE 8.1 mph - N/A   Clear
1:15 PM 41.0 °F 35.2 °F 32.0 °F 70% 30.42 in 10.0 mi NNE 9.2 mph - N/A   Clear
1:35 PM 42.8 °F 37.0 °F 32.0 °F 66% 30.41 in 10.0 mi NNE 10.4 mph - N/A   Clear
1:55 PM 42.8 °F 37.5 °F 32.0 °F 66% 30.40 in 10.0 mi NNE 9.2 mph - N/A   Clear
2:15 PM 42.8 °F 38.0 °F 32.0 °F 66% 30.40 in 10.0 mi North 8.1 mph - N/A   Clear
2:55 PM 42.8 °F 37.0 °F 32.0 °F 66% 30.40 in 5.0 mi NNE 10.4 mph - N/A   Haze
3:15 PM 42.8 °F 37.0 °F 30.2 °F 61% 30.40 in 5.0 mi NNE 10.4 mph - N/A   Haze
3:35 PM 41.0 °F 35.2 °F 32.0 °F 70% 30.40 in 5.0 mi NNE 9.2 mph - N/A   Haze
3:55 PM 41.0 °F 36.4 °F 32.0 °F 70% 30.40 in 10.0 mi NNE 6.9 mph - N/A   Clear
4:15 PM 41.0 °F 35.2 °F 32.0 °F 70% 30.39 in 10.0 mi NNE 9.2 mph - N/A   Clear
4:35 PM 39.2 °F 33.6 °F 32.0 °F 75% 30.40 in 10.0 mi North 8.1 mph - N/A   Clear
4:55 PM 39.2 °F 32.5 °F 32.0 °F 75% 30.39 in 10.0 mi NNE 10.4 mph - N/A   Clear
5:15 PM 37.4 °F 31.4 °F 32.0 °F 81% 30.39 in 10.0 mi North 8.1 mph - N/A   Clear
5:35 PM 37.4 °F 31.4 °F 32.0 °F 81% 30.39 in 10.0 mi North 8.1 mph - 0.01 in   Clear
5:55 PM 35.6 °F 29.2 °F 32.0 °F 87% 30.39 in 10.0 mi NNW 8.1 mph - 0.01 in   Clear
6:15 PM 35.6 °F 29.9 °F 32.0 °F 87% 30.38 in 10.0 mi North 6.9 mph - N/A   Clear
6:55 PM 35.6 °F 30.7 °F 30.2 °F 81% 30.38 in 10.0 mi NE 5.8 mph - N/A   Clear
7:15 PM 33.8 °F 28.6 °F 30.2 °F 87% 30.38 in 10.0 mi NE 5.8 mph - N/A   Clear
7:35 PM 32.0 °F 27.5 °F 28.4 °F 87% 30.39 in 10.0 mi NNE 4.6 mph - N/A   Clear
8:15 PM 32.0 °F 26.4 °F 28.4 °F 87% 30.38 in 10.0 mi NE 5.8 mph - N/A   Clear
8:35 PM 32.0 °F 27.5 °F 28.4 °F 87% 30.38 in 10.0 mi ENE 4.6 mph - N/A   Clear
8:55 PM 30.2 °F 25.4 °F 28.4 °F 93% 30.38 in 10.0 mi NE 4.6 mph - N/A   Clear
9:15 PM 30.2 °F - 28.4 °F 93% 30.39 in 10.0 mi Calm Calm - N/A   Clear
9:35 PM 28.4 °F - 28.4 °F 100% 30.39 in 10.0 mi Calm Calm - N/A   Clear
9:55 PM 28.4 °F - 28.4 °F 100% 30.39 in 10.0 mi Calm Calm - N/A   Clear
10:15 PM 28.4 °F 24.6 °F 28.4 °F 100% 30.40 in 10.0 mi NNE 3.5 mph - N/A   Clear
10:35 PM 28.4 °F 22.2 °F 28.4 °F 100% 30.39 in 10.0 mi ENE 5.8 mph - N/A   Clear
10:55 PM 28.4 °F 21.2 °F 28.4 °F 100% 30.39 in 10.0 mi NE 6.9 mph - N/A   Clear
11:15 PM 28.4 °F 24.6 °F 26.6 °F 93% 30.39 in 10.0 mi NNE 3.5 mph - N/A   Clear
11:35 PM 28.4 °F - 26.6 °F 93% 30.39 in 10.0 mi Calm Calm - N/A   Clear
11:55 PM 28.4 °F - 26.6 °F 93% 30.39 in 10.0 mi Calm Calm - N/A   Clear